M I D A S
Marine Information and Data Acquisition System
Tripno 1656 of the Zeeleeuw from 2009-03-10 07:54:10 to 2009-03-12 16:30:10
Back to CruiseResearch ActivitiesStationsMapUnderway DataData graphs

EquipmentUnitsComment
TimeDGPSUTC
LatitudeDGPSDM.mWGS84
LongitudeDGPSDM.mWGS84
HeadingGyrodeg 
SOGDGPSknotsSpeed over ground
COGDGPSdegCourse over ground
DepthEcho soundermeters200 kHz
Missing or incorrect values are displayed as -999
Navigation data collected by the RV Zeeleeuw from 2009-03-10 08:04:47 to 2009-03-12 17:00:00
                                                                                    Next 1000 lines
Time Latitude Longitude Heading SOG COG Depth
2009-03-10 08:04:57 51°13.663 2°55.955 113 0.9 291 -999
2009-03-10 08:05:01 51°13.664 2°55.953 113.5 1.1 301 5.4
2009-03-10 08:05:06 51°13.664 2°55.951 114 1 298 5.2
2009-03-10 08:05:12 51°13.665 2°55.949 114.7 1 302 5.2
2009-03-10 08:05:16 51°13.666 2°55.947 115.3 0.9 302 5.4
2009-03-10 08:05:22 51°13.667 2°55.946 115.6 0.7 315 -999
2009-03-10 08:05:27 51°13.667 2°55.946 116.1 0.1 335 -999
2009-03-10 08:05:32 51°13.667 2°55.946 116.5 0.3 55 -999
2009-03-10 08:05:37 51°13.667 2°55.947 116.4 0.3 78 -999
2009-03-10 08:05:42 51°13.667 2°55.948 116.4 0.4 72 -999
2009-03-10 08:05:47 51°13.667 2°55.948 116.5 0.2 128 -999
2009-03-10 08:05:52 51°13.667 2°55.949 116.8 0.3 72 -999
2009-03-10 08:05:57 51°13.667 2°55.949 117.9 0.2 110 -999
2009-03-10 08:06:02 51°13.667 2°55.95 119.6 0.3 84 -999
2009-03-10 08:06:07 51°13.667 2°55.95 120.6 0.2 116 -999
2009-03-10 08:06:12 51°13.667 2°55.951 122 0.3 108 -999
2009-03-10 08:06:17 51°13.667 2°55.951 122.8 0.2 121 -999
2009-03-10 08:06:22 51°13.667 2°55.951 123.5 0.2 127 -999
2009-03-10 08:06:27 51°13.667 2°55.952 124.6 0.2 130 -999
2009-03-10 08:06:32 51°13.666 2°55.952 125.7 0.2 119 -999
2009-03-10 08:06:37 51°13.666 2°55.953 126.5 0.3 126 -999
2009-03-10 08:06:42 51°13.666 2°55.953 127.1 0.3 148 -999
2009-03-10 08:06:47 51°13.665 2°55.954 127.8 0.2 130 -999
2009-03-10 08:06:52 51°13.665 2°55.954 128.1 0.3 139 -999
2009-03-10 08:06:57 51°13.665 2°55.955 128.4 0.3 136 -999
2009-03-10 08:07:02 51°13.665 2°55.955 128.7 0.3 146 -999
2009-03-10 08:07:07 51°13.664 2°55.956 129.3 0.3 143 -999
2009-03-10 08:07:12 51°13.664 2°55.956 130.1 0.3 147 -999
2009-03-10 08:07:17 51°13.664 2°55.956 130.7 0.3 145 -999
2009-03-10 08:07:22 51°13.663 2°55.956 131.3 0.3 159 -999
2009-03-10 08:07:27 51°13.663 2°55.957 132 0.3 146 -999
2009-03-10 08:07:32 51°13.662 2°55.957 132.8 0.2 126 -999
2009-03-10 08:07:37 51°13.662 2°55.957 133.7 0.1 88 -999
2009-03-10 08:07:42 51°13.662 2°55.957 133.9 0.1 33 -999
2009-03-10 08:07:47 51°13.663 2°55.957 133.2 -999 340 -999
2009-03-10 08:07:52 51°13.663 2°55.957 132.3 -999 17 -999
2009-03-10 08:07:57 51°13.663 2°55.958 131.6 0.1 70 -999
2009-03-10 08:08:02 51°13.663 2°55.957 131.1 0.1 161 -999
2009-03-10 08:08:07 51°13.663 2°55.958 130.7 0.1 121 -999
2009-03-10 08:08:12 51°13.662 2°55.958 130.2 0.2 135 -999
2009-03-10 08:08:17 51°13.662 2°55.958 129.8 0.2 120 -999
2009-03-10 08:08:22 51°13.662 2°55.959 129.2 0.2 89 -999
2009-03-10 08:08:27 51°13.662 2°55.959 128.2 0.1 88 -999
2009-03-10 08:08:32 51°13.662 2°55.959 126.4 0.2 92 -999
2009-03-10 08:08:37 51°13.662 2°55.959 125.3 0.1 88 -999
2009-03-10 08:08:42 51°13.662 2°55.96 124 0.2 63 -999
2009-03-10 08:08:47 51°13.662 2°55.96 122.6 0.1 142 -999
2009-03-10 08:08:52 51°13.662 2°55.96 120.8 -999 62 -999
2009-03-10 08:08:57 51°13.662 2°55.96 120.2 -999 141 -999
2009-03-10 08:09:02 51°13.662 2°55.96 119.8 0.1 198 -999
2009-03-10 08:09:07 51°13.662 2°55.96 119.2 -999 215 -999
2009-03-10 08:09:12 51°13.662 2°55.96 118.4 0.1 186 -999
2009-03-10 08:09:17 51°13.662 2°55.96 117.7 -999 229 -999
2009-03-10 08:09:22 51°13.662 2°55.96 117.2 0.1 184 -999
2009-03-10 08:09:27 51°13.662 2°55.96 116.6 0.1 189 -999
2009-03-10 08:09:32 51°13.662 2°55.96 115.7 0.1 163 -999
2009-03-10 08:09:37 51°13.662 2°55.96 115.2 0.1 165 -999
2009-03-10 08:09:42 51°13.662 2°55.96 114.5 -999 186 -999
2009-03-10 08:09:47 51°13.661 2°55.96 113.8 0.2 168 -999
2009-03-10 08:09:52 51°13.661 2°55.96 113 0.1 191 -999
2009-03-10 08:09:57 51°13.661 2°55.96 112.3 -999 177 -999
2009-03-10 08:10:02 51°13.661 2°55.959 111.7 -999 308 -999
2009-03-10 08:10:07 51°13.662 2°55.959 111.1 0.2 288 -999
2009-03-10 08:10:12 51°13.662 2°55.959 110.9 0.4 296 -999
2009-03-10 08:10:17 51°13.662 2°55.957 110.9 0.7 301 -999
2009-03-10 08:10:22 51°13.663 2°55.956 110.9 0.9 298 -999
2009-03-10 08:10:27 51°13.664 2°55.954 110.5 1.1 301 5.5
2009-03-10 08:10:32 51°13.665 2°55.951 110.3 1.2 297 5.2
2009-03-10 08:10:36 51°13.665 2°55.949 109.9 1.3 298 5.3
2009-03-10 08:10:41 51°13.666 2°55.946 109.3 1.5 293 5.4
2009-03-10 08:10:47 51°13.668 2°55.942 108.6 1.9 298 -999
2009-03-10 08:10:52 51°13.668 2°55.938 107.7 2 292 -999
2009-03-10 08:10:57 51°13.67 2°55.934 107.2 2.1 293 -999
2009-03-10 08:11:02 51°13.671 2°55.929 106.8 2.2 291 -999
2009-03-10 08:11:07 51°13.672 2°55.924 106.4 2.4 292 -999
2009-03-10 08:11:12 51°13.673 2°55.919 105.6 2.5 291 -999
2009-03-10 08:11:17 51°13.674 2°55.914 104.8 2.6 291 -999
2009-03-10 08:11:22 51°13.675 2°55.908 104.4 2.6 289 -999
2009-03-10 08:11:27 51°13.677 2°55.903 103.9 2.7 289 -999
2009-03-10 08:11:32 51°13.678 2°55.897 103.7 2.7 288 -999
2009-03-10 08:11:37 51°13.679 2°55.891 103.3 2.7 288 4.6
2009-03-10 08:11:42 51°13.68 2°55.885 102.9 2.8 288 -999
2009-03-10 08:11:47 51°13.682 2°55.879 102.4 2.9 288 -999
2009-03-10 08:11:52 51°13.683 2°55.873 101.5 2.9 287 -999
2009-03-10 08:11:57 51°13.684 2°55.866 100.5 3 286 -999
2009-03-10 08:12:02 51°13.685 2°55.86 99 3 285 7.8
2009-03-10 08:12:07 51°13.686 2°55.854 97.1 3 282 -999
2009-03-10 08:12:12 51°13.687 2°55.847 95.1 3 281 -999
2009-03-10 08:12:17 51°13.688 2°55.84 93 3.1 279 4.7
2009-03-10 08:12:22 51°13.689 2°55.833 91.4 3.1 278 -999
2009-03-10 08:12:27 51°13.689 2°55.827 89.7 3 275 -999
2009-03-10 08:12:32 51°13.689 2°55.82 87.5 2.9 274 -999
2009-03-10 08:12:37 51°13.689 2°55.814 85.6 2.9 271 -999
2009-03-10 08:12:42 51°13.689 2°55.808 83.6 2.8 271 -999
2009-03-10 08:12:47 51°13.689 2°55.802 81 2.8 269 -999
2009-03-10 08:12:52 51°13.689 2°55.796 78.8 2.7 268 -999
2009-03-10 08:12:57 51°13.689 2°55.79 76.7 2.7 267 -999
2009-03-10 08:13:02 51°13.689 2°55.784 74.6 2.5 264 -999
2009-03-10 08:13:07 51°13.689 2°55.779 72.9 2.4 264 -999
2009-03-10 08:13:12 51°13.688 2°55.774 71.2 2.2 263 -999
2009-03-10 08:13:17 51°13.688 2°55.769 69.4 2 264 -999
2009-03-10 08:13:22 51°13.688 2°55.767 68 1.3 270 -999
2009-03-10 08:13:27 51°13.688 2°55.765 65.4 0.6 303 -999
2009-03-10 08:13:32 51°13.689 2°55.765 59.9 0.6 4 -999
2009-03-10 08:13:37 51°13.69 2°55.765 53.6 0.8 4 10.6
2009-03-10 08:13:42 51°13.691 2°55.766 48.1 0.8 12 11
2009-03-10 08:13:47 51°13.692 2°55.766 43.6 0.7 9 11.1
2009-03-10 08:13:52 51°13.694 2°55.766 37.7 0.8 11 -999
2009-03-10 08:13:57 51°13.695 2°55.766 32.5 1 3 -999
2009-03-10 08:14:02 51°13.697 2°55.766 28.5 1 3 -999
2009-03-10 08:14:07 51°13.698 2°55.766 24.7 1.1 358 -999
2009-03-10 08:14:12 51°13.7 2°55.766 21 1.2 -999 -999
2009-03-10 08:14:17 51°13.701 2°55.766 17.4 1.2 356 -999
2009-03-10 08:14:22 51°13.703 2°55.766 13.8 1.2 353 -999
2009-03-10 08:14:27 51°13.705 2°55.765 10.4 1.1 344 -999
2009-03-10 08:14:32 51°13.706 2°55.764 7.9 0.9 342 -999
2009-03-10 08:14:37 51°13.707 2°55.764 5.4 0.7 332 -999
2009-03-10 08:14:42 51°13.708 2°55.763 2.6 0.5 321 -999
2009-03-10 08:14:47 51°13.708 2°55.763 359.8 0.3 272 -999
2009-03-10 08:14:52 51°13.708 2°55.762 357.2 0.3 243 -999
2009-03-10 08:14:57 51°13.707 2°55.761 355 0.3 254 -999
2009-03-10 08:15:02 51°13.707 2°55.761 353.4 0.3 267 -999
2009-03-10 08:15:07 51°13.707 2°55.76 352.1 0.3 277 -999
2009-03-10 08:15:12 51°13.707 2°55.759 350.9 0.3 302 -999
2009-03-10 08:15:17 51°13.707 2°55.758 349.7 0.4 309 -999
2009-03-10 08:15:22 51°13.708 2°55.758 347.9 0.6 322 -999
2009-03-10 08:15:27 51°13.709 2°55.756 345.8 0.8 322 -999
2009-03-10 08:15:32 51°13.71 2°55.755 343.2 1 328 -999
2009-03-10 08:15:37 51°13.712 2°55.754 340.2 1.1 327 -999
2009-03-10 08:15:42 51°13.713 2°55.752 336.8 1.5 326 10.6
2009-03-10 08:15:47 51°13.715 2°55.75 333.9 1.7 325 -999
2009-03-10 08:15:52 51°13.718 2°55.747 329.7 2.4 321 10.6
2009-03-10 08:15:57 51°13.721 2°55.743 325.8 3.1 320 10.6
2009-03-10 08:16:02 51°13.726 2°55.737 324 4 321 -999
2009-03-10 08:16:07 51°13.731 2°55.73 323.8 5 323 -999
2009-03-10 08:16:12 51°13.737 2°55.723 324.6 5.6 322 -999
2009-03-10 08:16:17 51°13.744 2°55.714 325 6.1 323 10.5
2009-03-10 08:16:21 51°13.75 2°55.708 325.7 6.6 324 10.5
2009-03-10 08:16:26 51°13.758 2°55.698 326.5 7 325 10.1
2009-03-10 08:16:32 51°13.768 2°55.687 327.1 7.4 327 9.7
2009-03-10 08:16:36 51°13.775 2°55.68 328.5 7.7 330 9.5
2009-03-10 08:16:41 51°13.784 2°55.671 330.2 7.9 329 9.5
2009-03-10 08:16:45 51°13.792 2°55.664 330.8 8.1 331 9.4
2009-03-10 08:16:50 51°13.803 2°55.655 331.8 8.3 332 9.4
2009-03-10 08:16:55 51°13.813 2°55.646 332.7 8.5 332 9.5
2009-03-10 08:17:00 51°13.824 2°55.638 332.8 8.6 333 9.5
2009-03-10 08:17:05 51°13.835 2°55.63 333.8 8.6 334 9.4
2009-03-10 08:17:09 51°13.844 2°55.623 334.2 8.7 333 9.4
2009-03-10 08:17:14 51°13.855 2°55.615 334.4 8.7 334 9.4
2009-03-10 08:17:19 51°13.866 2°55.607 334.9 8.8 334 9.5
2009-03-10 08:17:24 51°13.877 2°55.598 334.9 8.8 334 9.5
2009-03-10 08:17:28 51°13.886 2°55.591 334.8 8.9 335 9.5
2009-03-10 08:17:33 51°13.897 2°55.583 335.4 8.9 335 9.6
2009-03-10 08:17:39 51°13.91 2°55.572 336.1 9 337 9.6
2009-03-10 08:17:44 51°13.921 2°55.563 336.1 9 335 9.6
2009-03-10 08:17:49 51°13.932 2°55.555 335.9 9 335 9.7
2009-03-10 08:17:54 51°13.944 2°55.547 336.5 9.1 336 -999
2009-03-10 08:17:59 51°13.955 2°55.538 336.5 9.1 334 -999
2009-03-10 08:18:05 51°13.968 2°55.528 336.1 9 335 -999
2009-03-10 08:18:10 51°13.98 2°55.52 336.1 9.1 335 -999
2009-03-10 08:18:15 51°13.992 2°55.512 336.1 9.1 336 9.8
2009-03-10 08:18:21 51°14.005 2°55.501 336.1 9.1 334 -999
2009-03-10 08:18:26 51°14.017 2°55.493 335.3 9.1 336 -999
2009-03-10 08:18:31 51°14.028 2°55.485 335.7 9.1 335 9.5
2009-03-10 08:18:36 51°14.039 2°55.476 336 9.1 335 9.6
2009-03-10 08:18:40 51°14.049 2°55.469 335.9 9.2 334 9.8
2009-03-10 08:18:45 51°14.06 2°55.46 335.9 9.2 335 9.8
2009-03-10 08:18:50 51°14.071 2°55.451 335.8 9.1 333 9.9
2009-03-10 08:18:55 51°14.083 2°55.443 335.7 9.1 335 9.7
2009-03-10 08:19:00 51°14.094 2°55.434 336 9.1 334 9.9
2009-03-10 08:19:04 51°14.103 2°55.427 335.8 9.2 334 9.5
2009-03-10 08:19:09 51°14.115 2°55.418 335.3 9.1 333 9.6
2009-03-10 08:19:14 51°14.126 2°55.409 335.2 9.1 334 9.9
2009-03-10 08:19:19 51°14.137 2°55.4 335.1 9.1 333 10
2009-03-10 08:19:24 51°14.148 2°55.39 334.2 9.1 332 10
2009-03-10 08:19:28 51°14.157 2°55.382 333.5 9.1 331 10.1
2009-03-10 08:19:34 51°14.17 2°55.37 332.7 9 330 10.1
2009-03-10 08:19:38 51°14.178 2°55.362 330.8 9 328 10.1
2009-03-10 08:19:44 51°14.191 2°55.349 328.7 9 326 10.1
2009-03-10 08:19:48 51°14.199 2°55.34 327.4 9 325 10.2
2009-03-10 08:19:52 51°14.207 2°55.33 326.7 9.1 325 10.2
2009-03-10 08:19:59 51°14.221 2°55.313 325.2 9 322 10.3
2009-03-10 08:20:04 51°14.231 2°55.301 323.4 9 321 10.3
2009-03-10 08:20:08 51°14.238 2°55.29 321.4 9 319 10.3
2009-03-10 08:20:13 51°14.248 2°55.277 320.5 9 319 10.3
2009-03-10 08:20:19 51°14.259 2°55.261 319.4 9.1 318 10.3
2009-03-10 08:20:24 51°14.268 2°55.247 318.4 9.1 318 10.3
2009-03-10 08:20:28 51°14.276 2°55.236 318.4 9.1 317 10.3
2009-03-10 08:20:33 51°14.285 2°55.222 317.6 9.2 315 10.6
2009-03-10 08:20:38 51°14.294 2°55.207 315.1 9.2 313 10.6
2009-03-10 08:20:44 51°14.304 2°55.189 313.8 9.3 314 10.2
2009-03-10 08:20:48 51°14.312 2°55.177 313.9 9.4 313 10.3
2009-03-10 08:20:53 51°14.32 2°55.162 313.6 9.5 313 10.3
2009-03-10 08:20:59 51°14.331 2°55.143 313.6 9.5 314 10.4
2009-03-10 08:21:04 51°14.34 2°55.128 314.1 9.6 314 10.4
2009-03-10 08:21:08 51°14.348 2°55.116 313.9 9.6 313 10.4
2009-03-10 08:21:13 51°14.357 2°55.1 313.3 9.7 313 10.7
2009-03-10 08:21:19 51°14.368 2°55.081 313 9.9 312 10.4
2009-03-10 08:21:24 51°14.377 2°55.064 311.7 9.9 311 10.2
2009-03-10 08:21:28 51°14.384 2°55.051 311.2 10 312 10.4
2009-03-10 08:21:34 51°14.395 2°55.032 312.1 10 313 10.5
2009-03-10 08:21:39 51°14.405 2°55.015 313.2 10.2 314 9.9
2009-03-10 08:21:44 51°14.416 2°54.999 314.3 10.4 315 9.9
2009-03-10 08:21:48 51°14.424 2°54.985 314.6 10.5 313 10
2009-03-10 08:21:52 51°14.431 2°54.971 313.9 10.7 311 10
2009-03-10 08:21:59 51°14.445 2°54.945 312.3 10.9 309 10.2
2009-03-10 08:22:04 51°14.455 2°54.926 311.1 11.1 309 10.1
2009-03-10 08:22:08 51°14.463 2°54.911 311.2 11.3 310 10.2
2009-03-10 08:22:12 51°14.471 2°54.896 311.6 11.4 311 10.2
2009-03-10 08:22:19 51°14.486 2°54.869 312.7 11.6 313 10.2
2009-03-10 08:22:24 51°14.498 2°54.851 314.4 11.7 314 10.1
2009-03-10 08:22:28 51°14.507 2°54.837 316.5 11.7 317 9.9
2009-03-10 08:22:32 51°14.517 2°54.824 318.6 11.8 319 10
2009-03-10 08:22:39 51°14.535 2°54.801 322 11.8 324 9.7
2009-03-10 08:22:44 51°14.549 2°54.787 326 11.7 326 9.6
2009-03-10 08:22:48 51°14.56 2°54.777 329.3 11.7 330 9.6
2009-03-10 08:22:53 51°14.574 2°54.765 333.7 11.7 334 9.5
2009-03-10 08:22:58 51°14.589 2°54.753 335.4 11.7 331 9.4
2009-03-10 08:23:04 51°14.605 2°54.738 332.2 11.7 335 9.4
2009-03-10 08:23:08 51°14.618 2°54.731 335.2 11.7 339 9.3
2009-03-10 08:23:13 51°14.633 2°54.722 339.7 11.6 343 9.3
2009-03-10 08:23:19 51°14.651 2°54.717 345.9 11.4 349 9.4
2009-03-10 08:23:24 51°14.667 2°54.713 351.7 11.3 354 9.3
2009-03-10 08:23:28 51°14.679 2°54.713 357.1 11.2 358 9.3
2009-03-10 08:23:33 51°14.695 2°54.711 359.6 11.2 357 9.3
2009-03-10 08:23:39 51°14.713 2°54.712 1.1 11.2 1 9.4
2009-03-10 08:23:44 51°14.729 2°54.713 3.7 11.2 2 9.3
2009-03-10 08:23:48 51°14.741 2°54.714 5.7 11.2 5 9.2
2009-03-10 08:23:53 51°14.756 2°54.718 8.9 11.3 7 9.4
2009-03-10 08:23:59 51°14.775 2°54.723 10.2 11.2 11 9.4
2009-03-10 08:24:04 51°14.79 2°54.727 12.3 11.3 10 9.6
2009-03-10 08:24:08 51°14.802 2°54.732 14.2 11.3 15 9.5
2009-03-10 08:24:13 51°14.817 2°54.739 15.8 11.2 15 9.3
2009-03-10 08:24:19 51°14.835 2°54.747 17.2 11.1 17 9.2
2009-03-10 08:24:24 51°14.85 2°54.755 19 11.2 19 9.2
2009-03-10 08:24:28 51°14.861 2°54.761 21.1 11.2 22 9.1
2009-03-10 08:24:33 51°14.875 2°54.774 26.4 11.1 27 9.1
2009-03-10 08:24:39 51°14.891 2°54.787 27.9 11.1 28 9
2009-03-10 08:24:44 51°14.905 2°54.8 30.5 11.2 30 9
2009-03-10 08:24:48 51°14.915 2°54.81 32.5 11.2 33 8.9
2009-03-10 08:24:53 51°14.928 2°54.824 33.8 11.1 33 8.8
2009-03-10 08:24:58 51°14.941 2°54.837 34.9 11.1 33 8.9
2009-03-10 08:25:04 51°14.955 2°54.855 36.4 11.2 37 9
2009-03-10 08:25:08 51°14.967 2°54.865 35.9 11.2 33 8.7
2009-03-10 08:25:13 51°14.978 2°54.882 38.2 11.2 38 8.7
2009-03-10 08:25:18 51°14.991 2°54.896 38.3 11.2 36 8.9
2009-03-10 08:25:24 51°15.006 2°54.913 37.8 11.2 36 8.8
2009-03-10 08:25:28 51°15.015 2°54.926 38.7 11.3 40 8.8
2009-03-10 08:25:33 51°15.029 2°54.94 38.6 11.2 34 8.4
2009-03-10 08:25:39 51°15.043 2°54.959 38.6 11.2 40 8.5
2009-03-10 08:25:44 51°15.055 2°54.974 39.4 11.2 37 8.5
2009-03-10 08:25:48 51°15.065 2°54.985 38.6 11.2 35 8.6
2009-03-10 08:25:53 51°15.077 2°55.001 39.1 11.1 41 8.6
2009-03-10 08:25:59 51°15.092 2°55.018 39.6 11.2 35 8.4
2009-03-10 08:26:04 51°15.104 2°55.034 39 11.1 39 8.5
2009-03-10 08:26:08 51°15.114 2°55.046 39.6 11 38 8.3
2009-03-10 08:26:13 51°15.126 2°55.061 39.9 11.1 37 8.2
2009-03-10 08:26:19 51°15.14 2°55.079 38.6 11.1 40 8.2
2009-03-10 08:26:24 51°15.153 2°55.094 39.6 11.1 36 8.3
2009-03-10 08:26:28 51°15.162 2°55.107 40 11.1 40 8.4
2009-03-10 08:26:33 51°15.174 2°55.121 39.4 11.1 36 8.1
2009-03-10 08:26:39 51°15.188 2°55.141 40.6 11.1 42 8
2009-03-10 08:26:44 51°15.201 2°55.155 40.6 11.1 37 8
2009-03-10 08:26:48 51°15.209 2°55.169 40.5 11.2 43 7.9
2009-03-10 08:26:53 51°15.222 2°55.183 40.7 11.1 36 8
2009-03-10 08:26:59 51°15.235 2°55.203 40.2 11.1 43 7.9
2009-03-10 08:27:04 51°15.248 2°55.216 40.7 11.1 34 7.8
2009-03-10 08:27:08 51°15.257 2°55.23 40 11.1 45 7.7
2009-03-10 08:27:13 51°15.269 2°55.245 41.5 11.1 33 7.7
2009-03-10 08:27:18 51°15.281 2°55.26 38.7 11 44 7.6
2009-03-10 08:27:24 51°15.295 2°55.279 42.2 11 36 7.6
2009-03-10 08:27:28 51°15.304 2°55.291 40.3 11.1 41 7.6
2009-03-10 08:27:33 51°15.317 2°55.306 40 11 35 7.6
2009-03-10 08:27:39 51°15.33 2°55.326 40.5 11.1 43 7.6
2009-03-10 08:27:44 51°15.343 2°55.339 40.6 11.1 34 7.6
2009-03-10 08:27:48 51°15.352 2°55.353 39.6 11 43 7.6
2009-03-10 08:27:52 51°15.362 2°55.364 40 11 37 7.6
2009-03-10 08:27:59 51°15.379 2°55.385 39.6 11 37 7.6
2009-03-10 08:28:04 51°15.39 2°55.401 38.3 11 40 7.6
2009-03-10 08:28:08 51°15.4 2°55.413 39.7 10.9 36 7.6
2009-03-10 08:28:14 51°15.414 2°55.43 38.9 11 39 7.6
2009-03-10 08:28:18 51°15.424 2°55.443 40.7 11.1 38 7.6
2009-03-10 08:28:24 51°15.438 2°55.461 39.7 11 39 7.7
2009-03-10 08:28:28 51°15.447 2°55.475 41.2 11.1 41 7.6
2009-03-10 08:28:34 51°15.463 2°55.491 39.1 11.1 35 7.7
2009-03-10 08:28:39 51°15.474 2°55.508 41.1 11.2 43 7.7
2009-03-10 08:28:44 51°15.486 2°55.522 39.9 11.2 37 7.7
2009-03-10 08:28:48 51°15.496 2°55.536 40.8 11.1 40 7.7
2009-03-10 08:28:52 51°15.506 2°55.547 40.2 11 38 7.8
2009-03-10 08:28:59 51°15.522 2°55.569 40.4 11.1 40 7.8
2009-03-10 08:29:04 51°15.534 2°55.584 40.5 11.2 37 7.8
2009-03-10 08:29:08 51°15.544 2°55.597 40.5 11.3 42 7.8
2009-03-10 08:29:13 51°15.556 2°55.612 41.1 11.2 38 7.9
2009-03-10 08:29:19 51°15.57 2°55.632 40.7 11.1 43 7.9
2009-03-10 08:29:24 51°15.581 2°55.648 42.7 11.1 41 7.9
2009-03-10 08:29:28 51°15.59 2°55.662 43.1 11.2 43 7.9
2009-03-10 08:29:33 51°15.601 2°55.679 44.4 11.1 44 8
2009-03-10 08:29:38 51°15.613 2°55.695 43.9 11.1 40 8
2009-03-10 08:29:44 51°15.626 2°55.716 43.4 11.2 47 8
2009-03-10 08:29:48 51°15.635 2°55.729 44.8 11.2 40 8
2009-03-10 08:29:53 51°15.646 2°55.746 45.1 11.1 48 8
2009-03-10 08:29:59 51°15.66 2°55.766 45.7 11 42 8.1
2009-03-10 08:30:04 51°15.67 2°55.785 46.5 11.1 48 8.1
2009-03-10 08:30:08 51°15.679 2°55.798 46.6 11.1 45 8.1
2009-03-10 08:30:13 51°15.689 2°55.817 47.6 11.1 48 8.1
2009-03-10 08:30:19 51°15.702 2°55.838 48 11.2 47 8.2
2009-03-10 08:30:24 51°15.712 2°55.857 48.4 11.1 48 8.2
2009-03-10 08:30:28 51°15.72 2°55.872 49.5 11.2 49 8.2
2009-03-10 08:30:33 51°15.731 2°55.889 48.5 11.1 46 8.2
2009-03-10 08:30:39 51°15.742 2°55.912 49.3 11.1 51 8.2
2009-03-10 08:30:44 51°15.753 2°55.93 50 11.1 46 8.2
2009-03-10 08:30:48 51°15.761 2°55.944 48.8 11 51 8.2
2009-03-10 08:30:53 51°15.771 2°55.964 50.7 11.1 48 8.3
2009-03-10 08:30:59 51°15.783 2°55.986 49.4 11.1 51 8.3
2009-03-10 08:31:04 51°15.792 2°56.005 50.8 11.2 48 8.3
2009-03-10 08:31:08 51°15.801 2°56.019 50.1 11.1 49 8.3
2009-03-10 08:31:13 51°15.81 2°56.039 51 11.1 52 8.3
2009-03-10 08:31:19 51°15.822 2°56.061 51.6 11.2 49 8.3
2009-03-10 08:31:24 51°15.832 2°56.081 51.9 11.1 52 8.3
2009-03-10 08:31:28 51°15.839 2°56.097 54 11.1 57 8.3
2009-03-10 08:31:32 51°15.845 2°56.114 56.2 11.2 54 8.3
2009-03-10 08:31:38 51°15.857 2°56.137 55 11.1 55 8.3
2009-03-10 08:31:44 51°15.866 2°56.163 57.4 11.1 57 8.4
2009-03-10 08:31:48 51°15.874 2°56.178 57.1 11.2 53 8.4
2009-03-10 08:31:52 51°15.88 2°56.195 56.7 11.3 59 8.4
2009-03-10 08:31:58 51°15.891 2°56.219 56.8 11.2 55 8.4
2009-03-10 08:32:04 51°15.901 2°56.245 57.6 11.3 58 8.4
2009-03-10 08:32:08 51°15.909 2°56.26 56 11.3 54 8.4
2009-03-10 08:32:12 51°15.915 2°56.277 57 11.2 58 8.4
2009-03-10 08:32:19 51°15.927 2°56.306 57.6 11.3 56 8.5
2009-03-10 08:32:24 51°15.936 2°56.326 56 11.2 54 8.5
2009-03-10 08:32:28 51°15.943 2°56.343 56.2 11 57 8.5
2009-03-10 08:32:32 51°15.95 2°56.359 56.9 11.1 56 8.5
2009-03-10 08:32:39 51°15.962 2°56.387 55.8 11.1 54 8.5
2009-03-10 08:32:44 51°15.97 2°56.408 56.5 11.1 57 8.5
2009-03-10 08:32:48 51°15.978 2°56.423 55.7 11.1 53 8.5
2009-03-10 08:32:52 51°15.984 2°56.44 56.1 11.2 58 8.6
2009-03-10 08:32:59 51°15.997 2°56.468 56 11.2 53 8.5
2009-03-10 08:33:04 51°16.005 2°56.489 56.1 11.2 58 8.5
2009-03-10 08:33:08 51°16.013 2°56.504 56 11.2 50 8.5
2009-03-10 08:33:12 51°16.021 2°56.52 54.5 11.1 58 8.5
2009-03-10 08:33:19 51°16.032 2°56.549 57 11.1 55 8.5
2009-03-10 08:33:24 51°16.041 2°56.569 55.7 11.2 55 8.5
2009-03-10 08:33:28 51°16.048 2°56.586 56.3 11.2 55 8.6
2009-03-10 08:33:33 51°16.057 2°56.606 56.2 11 57 8.7
2009-03-10 08:33:39 51°16.067 2°56.631 57.8 11.2 56 8.6
2009-03-10 08:33:44 51°16.076 2°56.651 56.2 11.3 56 8.7
2009-03-10 08:33:48 51°16.083 2°56.668 57 11.2 59 8.7
2009-03-10 08:33:53 51°16.091 2°56.688 58.3 11.2 55 8.7
2009-03-10 08:33:58 51°16.1 2°56.709 57.2 11.2 56 8.7
2009-03-10 08:34:04 51°16.111 2°56.732 56 11 56 8.6
2009-03-10 08:34:08 51°16.117 2°56.749 57.1 11.1 56 8.7
2009-03-10 08:34:13 51°16.127 2°56.769 55.5 11.2 54 8.8
2009-03-10 08:34:18 51°16.136 2°56.789 55 11.1 53 8.7
2009-03-10 08:34:24 51°16.146 2°56.813 54.8 11 57 8.7
2009-03-10 08:34:28 51°16.153 2°56.829 56.3 11.3 52 8.6
2009-03-10 08:34:33 51°16.163 2°56.849 53.9 11.2 56 8.6
2009-03-10 08:34:39 51°16.173 2°56.874 56.9 11.2 55 8.7
2009-03-10 08:34:44 51°16.182 2°56.894 55.8 11.3 53 8.8
2009-03-10 08:34:48 51°16.19 2°56.91 54.8 11.1 55 8.8
2009-03-10 08:34:53 51°16.198 2°56.931 56.4 11.1 56 8.9
2009-03-10 08:34:59 51°16.21 2°56.954 55.9 11.2 52 8.8
2009-03-10 08:35:04 51°16.218 2°56.974 54.8 11.1 55 8.8
2009-03-10 08:35:08 51°16.226 2°56.99 55.2 11.1 54 8.8
2009-03-10 08:35:13 51°16.235 2°57.011 55.7 11.2 55 8.8
2009-03-10 08:35:19 51°16.246 2°57.034 55.5 11.1 54 8.7
2009-03-10 08:35:24 51°16.254 2°57.056 56.5 11.2 55 8.8
2009-03-10 08:35:28 51°16.262 2°57.071 56.1 11.2 54 8.9
2009-03-10 08:35:34 51°16.272 2°57.096 55.8 11.2 55 8.8
2009-03-10 08:35:39 51°16.281 2°57.116 55.4 11.2 56 8.8
2009-03-10 08:35:44 51°16.29 2°57.137 56.8 11.3 55 8.8
2009-03-10 08:35:48 51°16.297 2°57.153 56.8 11.2 55 8.8
2009-03-10 08:35:53 51°16.306 2°57.173 55.5 11.1 55 8.8
2009-03-10 08:35:59 51°16.317 2°57.197 56.6 11.1 56 8.9
2009-03-10 08:36:04 51°16.325 2°57.218 57.7 11.4 57 8.9
2009-03-10 08:36:08 51°16.333 2°57.234 56.5 11.3 52 8.9
2009-03-10 08:36:13 51°16.341 2°57.255 56.6 11.1 61 9
2009-03-10 08:36:18 51°16.35 2°57.275 58.3 11.1 50 8.9
2009-03-10 08:36:24 51°16.36 2°57.299 55.2 11.2 58 9
2009-03-10 08:36:28 51°16.368 2°57.315 56.2 11.1 54 9
2009-03-10 08:36:33 51°16.377 2°57.335 55.9 11.2 55 9
2009-03-10 08:36:38 51°16.385 2°57.356 55.9 11.4 55 9.1
2009-03-10 08:36:44 51°16.398 2°57.379 53.8 11.1 53 9
2009-03-10 08:36:48 51°16.403 2°57.396 56.2 11.2 59 9
2009-03-10 08:36:53 51°16.414 2°57.416 55.2 11.4 50 9
2009-03-10 08:36:59 51°16.424 2°57.44 54.2 11.3 55 9
2009-03-10 08:37:04 51°16.434 2°57.46 54.4 11.1 53 9
2009-03-10 08:37:08 51°16.441 2°57.476 55.3 11.3 52 9
2009-03-10 08:37:13 51°16.452 2°57.494 52.3 11.2 51 8.9
2009-03-10 08:37:19 51°16.461 2°57.52 54.7 11.3 55 9
2009-03-10 08:37:24 51°16.472 2°57.539 54.5 11.3 53 8.9
2009-03-10 08:37:28 51°16.479 2°57.555 54.4 11.2 52 8.9
2009-03-10 08:37:33 51°16.488 2°57.575 54.6 11.2 54 9
2009-03-10 08:37:39 51°16.499 2°57.599 54.7 11.3 53 9
2009-03-10 08:37:44 51°16.508 2°57.62 55.3 11.2 56 9.1
2009-03-10 08:37:48 51°16.516 2°57.635 56.2 11.3 53 9
2009-03-10 08:37:54 51°16.527 2°57.659 55 11.2 54 9.1
2009-03-10 08:37:59 51°16.535 2°57.681 56 11.3 57 9
2009-03-10 08:38:04 51°16.545 2°57.701 56.9 11.5 55 9
2009-03-10 08:38:08 51°16.552 2°57.718 56.2 11.4 54 9.1
2009-03-10 08:38:13 51°16.561 2°57.738 55.7 11.3 55 9.1
2009-03-10 08:38:19 51°16.572 2°57.763 56 11.4 55 9.1
2009-03-10 08:38:24 51°16.581 2°57.784 56.3 11.4 57 9.1
2009-03-10 08:38:28 51°16.588 2°57.8 56.9 11.2 55 9.1
2009-03-10 08:38:33 51°16.597 2°57.821 56.8 11.3 55 9.2
2009-03-10 08:38:38 51°16.606 2°57.841 56 11.2 55 9.2
2009-03-10 08:38:44 51°16.616 2°57.866 56.5 11.4 57 9.2
2009-03-10 08:38:48 51°16.624 2°57.882 55.9 11.4 52 9.1
2009-03-10 08:38:53 51°16.633 2°57.902 55.3 11.2 57 9.1
2009-03-10 08:38:59 51°16.643 2°57.928 57.2 11.4 55 9.1
2009-03-10 08:39:04 51°16.654 2°57.947 55.6 11.4 51 9.1
2009-03-10 08:39:08 51°16.66 2°57.964 55.5 11.3 58 9.1
2009-03-10 08:39:13 51°16.67 2°57.984 55.2 11.3 50 9.1
2009-03-10 08:39:19 51°16.68 2°58.009 54.9 11.2 58 9.2
2009-03-10 08:39:24 51°16.69 2°58.028 55.7 11.2 52 9.2
2009-03-10 08:39:28 51°16.697 2°58.044 54.5 11.2 53 9.2
2009-03-10 08:39:33 51°16.707 2°58.063 53.5 11.1 52 9.2
2009-03-10 08:39:39 51°16.718 2°58.087 54.3 11.3 54 9.2
2009-03-10 08:39:44 51°16.728 2°58.106 53.8 11.2 52 9.2
2009-03-10 08:39:48 51°16.735 2°58.122 53.3 11.2 54 9.2
2009-03-10 08:39:54 51°16.747 2°58.146 54.2 11.3 52 9.2
2009-03-10 08:39:59 51°16.756 2°58.167 54.3 11.3 55 9.2
2009-03-10 08:40:04 51°16.765 2°58.187 55.3 11.3 51 9.2
2009-03-10 08:40:08 51°16.773 2°58.203 54 11.4 55 9.2
2009-03-10 08:40:13 51°16.782 2°58.224 55.3 11.5 53 9.2
2009-03-10 08:40:19 51°16.793 2°58.248 54.4 11.4 55 9.2
2009-03-10 08:40:24 51°16.803 2°58.268 55.7 11.3 51 9.2
2009-03-10 08:40:28 51°16.81 2°58.284 54.8 11.4 55 9.2
2009-03-10 08:40:33 51°16.819 2°58.305 55.9 11.5 53 9.2
2009-03-10 08:40:39 51°16.831 2°58.329 54.4 11.4 54 9.2
2009-03-10 08:40:44 51°16.84 2°58.35 55.6 11.3 52 9.3
2009-03-10 08:40:48 51°16.848 2°58.365 55.2 11.4 56 9.2
2009-03-10 08:40:53 51°16.856 2°58.386 56.3 11.4 52 9.3
2009-03-10 08:40:59 51°16.867 2°58.41 55.2 11.1 58 9.2
2009-03-10 08:41:04 51°16.876 2°58.431 57 11.3 53 9.2
2009-03-10 08:41:08 51°16.884 2°58.446 54.5 11.2 53 9.2
2009-03-10 08:41:12 51°16.89 2°58.463 56.1 11.2 58 9.2
2009-03-10 08:41:18 51°16.902 2°58.486 55.8 11.2 51 9.3
2009-03-10 08:41:24 51°16.913 2°58.511 54.4 11.2 56 9.3
2009-03-10 08:41:29 51°16.922 2°58.531 56 11.3 54 9.3
2009-03-10 08:41:32 51°16.928 2°58.543 54.4 11.1 52 9.3
2009-03-10 08:41:39 51°16.94 2°58.571 55.2 11.2 56 9.3
2009-03-10 08:41:44 51°16.95 2°58.59 55.3 11.3 51 9.3
2009-03-10 08:41:49 51°16.958 2°58.611 54.6 11.3 57 9.3
2009-03-10 08:41:54 51°16.968 2°58.631 55.8 11.3 53 9.2
2009-03-10 08:41:59 51°16.977 2°58.651 55.2 11.2 55 9.3
2009-03-10 08:42:04 51°16.985 2°58.672 56.6 11.3 57 9.3
2009-03-10 08:42:08 51°16.993 2°58.688 56.4 11.4 50 9.2
2009-03-10 08:42:14 51°17.004 2°58.712 54.1 11.1 55 9.2
2009-03-10 08:42:19 51°17.012 2°58.733 57.7 11.2 55 9.2
2009-03-10 08:42:24 51°17.022 2°58.752 55.7 11.3 51 9.2
2009-03-10 08:42:28 51°17.028 2°58.77 56 11.4 58 9.1
2009-03-10 08:42:33 51°17.038 2°58.789 56.2 11.3 53 9.2
2009-03-10 08:42:39 51°17.048 2°58.814 56.3 11.2 56 9.2
2009-03-10 08:42:44 51°17.058 2°58.834 56.2 11.5 54 9.2
2009-03-10 08:42:48 51°17.065 2°58.851 55.5 11.7 55 9.2
2009-03-10 08:42:53 51°17.075 2°58.872 55 11.3 54 9.3
2009-03-10 08:42:58 51°17.083 2°58.892 56 11.1 57 9.2
2009-03-10 08:43:04 51°17.095 2°58.916 56.3 11.6 52 9.1
2009-03-10 08:43:08 51°17.102 2°58.933 55.2 11.4 58 9.2
2009-03-10 08:43:13 51°17.11 2°58.954 57.7 11.3 58 9.2
2009-03-10 08:43:18 51°17.12 2°58.974 56.4 11.3 50 9.2
2009-03-10 08:43:24 51°17.131 2°58.999 54.8 11.4 58 9.1
2009-03-10 08:43:28 51°17.138 2°59.016 56.6 11.6 52 9.1
2009-03-10 08:43:33 51°17.148 2°59.035 54.4 11.4 54 9.2
2009-03-10 08:43:39 51°17.158 2°59.06 55.7 11.2 55 9.2
2009-03-10 08:43:44 51°17.168 2°59.08 55.2 11.5 52 9.2
2009-03-10 08:43:48 51°17.176 2°59.096 53.2 11.5 51 9.3
2009-03-10 08:43:53 51°17.185 2°59.117 54 11.4 58 9.2
2009-03-10 08:43:59 51°17.197 2°59.14 54.9 11.3 49 9.2
2009-03-10 08:44:04 51°17.206 2°59.16 53.6 11.3 57 9.2
2009-03-10 08:44:09 51°17.216 2°59.18 55.2 11.4 51 9.2
2009-03-10 08:44:13 51°17.223 2°59.196 52.8 11.2 53 9.2
2009-03-10 08:44:19 51°17.234 2°59.221 54.5 11.4 55 9.2
2009-03-10 08:44:24 51°17.244 2°59.24 53 11.3 52 9.2
2009-03-10 08:44:28 51°17.251 2°59.257 54.1 11.2 58 9.2
2009-03-10 08:44:34 51°17.262 2°59.281 56 11.5 53 9.2
2009-03-10 08:44:39 51°17.272 2°59.301 53.9 11.3 52 9.2
2009-03-10 08:44:44 51°17.28 2°59.322 55.2 11.2 56 9.3
2009-03-10 08:44:48 51°17.288 2°59.337 55.4 11.3 51 9.3
2009-03-10 08:44:53 51°17.298 2°59.358 54.1 11.4 55 9.2
2009-03-10 08:44:59 51°17.308 2°59.382 55.3 11.5 54 9.3
2009-03-10 08:45:04 51°17.318 2°59.403 54.4 11.3 56 9.3
2009-03-10 08:45:08 51°17.325 2°59.419 55.7 11.3 55 9.3
2009-03-10 08:45:13 51°17.334 2°59.44 55.9 11.6 54 9.2
2009-03-10 08:45:18 51°17.344 2°59.46 54.6 11.5 55 9.2
2009-03-10 08:45:24 51°17.354 2°59.486 56.4 11.5 56 9.2
2009-03-10 08:45:28 51°17.361 2°59.502 56.2 11.6 53 9.2
2009-03-10 08:45:33 51°17.371 2°59.522 54.5 11.3 56 9.2
2009-03-10 08:45:39 51°17.381 2°59.548 57.7 11.3 57 9.2
2009-03-10 08:45:44 51°17.391 2°59.568 56 11.5 55 9.3
2009-03-10 08:45:48 51°17.397 2°59.586 56 11.6 58 9.2
2009-03-10 08:45:53 51°17.408 2°59.605 55.6 11.5 51 9.2
2009-03-10 08:45:59 51°17.417 2°59.631 55.9 11.3 58 9.3
2009-03-10 08:46:04 51°17.427 2°59.651 57 11.5 53 9.3
2009-03-10 08:46:08 51°17.434 2°59.668 55.2 11.6 56 9.3
2009-03-10 08:46:13 51°17.443 2°59.69 56.4 11.6 54 9.2
2009-03-10 08:46:19 51°17.455 2°59.714 55.5 11.4 54 9.2
2009-03-10 08:46:24 51°17.463 2°59.735 55.6 11.4 54 9.3
2009-03-10 08:46:28 51°17.472 2°59.75 55.3 11.4 52 9.3
2009-03-10 08:46:34 51°17.483 2°59.775 54.4 11.6 55 9.3
2009-03-10 08:46:39 51°17.493 2°59.795 54.1 11.7 51 9.3
2009-03-10 08:46:44 51°17.502 2°59.816 53.2 11.4 56 9.3
2009-03-10 08:46:48 51°17.509 2°59.832 54.8 11.4 53 9.3
2009-03-10 08:46:54 51°17.521 2°59.856 53.8 11.4 52 9.3
2009-03-10 08:46:59 51°17.531 2°59.876 53.8 11.5 52 9.2
2009-03-10 08:47:04 51°17.541 2°59.896 53.6 11.4 52 9.1
2009-03-10 08:47:08 51°17.548 2°59.913 53.7 11.3 55 9.2
2009-03-10 08:47:13 51°17.556 2°59.934 56 11.2 55 9.2
2009-03-10 08:47:19 51°17.568 2°59.957 54.5 11.3 52 9.2
2009-03-10 08:47:24 51°17.577 2°59.977 54.6 11.4 52 9.2
2009-03-10 08:47:28 51°17.585 2°59.993 54.2 11.3 54 9.1
2009-03-10 08:47:33 51°17.594 3°0.014 55 11.4 54 9.1
2009-03-10 08:47:38 51°17.604 3°0.034 54.5 11.6 52 9.1
2009-03-10 08:47:44 51°17.615 3°0.059 54.2 11.6 54 9.1
2009-03-10 08:47:48 51°17.622 3°0.076 55.1 11.6 54 9.1
2009-03-10 08:47:53 51°17.632 3°0.096 54.7 11.4 53 9.1
2009-03-10 08:47:59 51°17.642 3°0.122 55.9 11.6 57 9
2009-03-10 08:48:04 51°17.653 3°0.141 55.1 11.7 50 9
2009-03-10 08:48:08 51°17.66 3°0.158 55 11.4 60 9
2009-03-10 08:48:13 51°17.669 3°0.179 57.1 11.4 52 8.9
2009-03-10 08:48:19 51°17.68 3°0.203 54.7 11.4 53 8.9
2009-03-10 08:48:24 51°17.689 3°0.224 55.2 11.4 57 9
2009-03-10 08:48:28 51°17.696 3°0.24 56 11.3 55 9
2009-03-10 08:48:33 51°17.704 3°0.261 57.4 11.3 57 8.9
2009-03-10 08:48:39 51°17.716 3°0.285 56.2 11.4 53 8.9
2009-03-10 08:48:44 51°17.725 3°0.306 55.7 11.3 56 9
2009-03-10 08:48:49 51°17.733 3°0.327 56.2 11.4 56 9
2009-03-10 08:48:54 51°17.742 3°0.348 57 11.4 55 9
2009-03-10 08:48:59 51°17.751 3°0.369 56.2 11.5 56 8.9
2009-03-10 08:49:04 51°17.761 3°0.389 55.6 11.4 51 8.9
2009-03-10 08:49:08 51°17.768 3°0.405 55.2 11.3 59 8.8
2009-03-10 08:49:14 51°17.779 3°0.429 56.7 11.4 51 8.7
2009-03-10 08:49:19 51°17.789 3°0.45 54.5 11.3 54 8.8
2009-03-10 08:49:24 51°17.797 3°0.47 55 11.2 55 8.7
2009-03-10 08:49:28 51°17.805 3°0.486 55.5 11.4 53 8.7
2009-03-10 08:49:33 51°17.815 3°0.506 53.9 11.4 54 8.8
2009-03-10 08:49:39 51°17.826 3°0.531 55 11.3 53 8.8
2009-03-10 08:49:44 51°17.836 3°0.55 53.4 11.4 53 8.7
2009-03-10 08:49:48 51°17.843 3°0.567 54.1 11.5 53 8.7
2009-03-10 08:49:53 51°17.853 3°0.586 53.8 11.3 53 8.7
2009-03-10 08:49:58 51°17.862 3°0.607 55.5 11.4 53 8.7
2009-03-10 08:50:04 51°17.874 3°0.63 53.4 11.4 53 8.6
2009-03-10 08:50:08 51°17.882 3°0.647 53.7 11.4 51 8.6
2009-03-10 08:50:13 51°17.892 3°0.665 52.8 11.3 52 8.5
2009-03-10 08:50:19 51°17.904 3°0.689 53.2 11.4 51 8.6
2009-03-10 08:50:24 51°17.914 3°0.708 51.9 11.3 53 8.6
2009-03-10 08:50:28 51°17.921 3°0.725 53.2 11.4 53 8.5
2009-03-10 08:50:33 51°17.932 3°0.744 52.3 11.3 47 8.6
2009-03-10 08:50:39 51°17.943 3°0.767 50.8 11.3 53 8.5
2009-03-10 08:50:44 51°17.954 3°0.786 51.9 11.4 48 8.4
2009-03-10 08:50:48 51°17.962 3°0.8 49.8 11.3 50 8.3
2009-03-10 08:50:53 51°17.972 3°0.821 51.4 11.5 50 8.3
2009-03-10 08:50:59 51°17.986 3°0.842 49.8 11.5 45 8.4
2009-03-10 08:51:04 51°17.995 3°0.862 48.9 11.3 53 8.2
2009-03-10 08:51:08 51°18.004 3°0.876 49.9 11.4 43 8.2
2009-03-10 08:51:14 51°18.017 3°0.899 48 11.4 51 8.2
2009-03-10 08:51:19 51°18.028 3°0.917 50.1 11.5 46 8.2
2009-03-10 08:51:24 51°18.038 3°0.936 49.4 11.5 49 8.3
2009-03-10 08:51:28 51°18.047 3°0.951 48.8 11.3 45 8.2
2009-03-10 08:51:33 51°18.058 3°0.969 48.5 11.3 49 8.2
2009-03-10 08:51:39 51°18.07 3°0.992 49.4 11.4 48 8.1
2009-03-10 08:51:44 51°18.08 3°1.011 51 11.4 50 8.2
2009-03-10 08:51:48 51°18.089 3°1.026 50.5 11.4 47 8.3
2009-03-10 08:51:53 51°18.099 3°1.045 49.3 11.1 49 8.3
2009-03-10 08:51:59 51°18.111 3°1.068 50.6 11.4 51 8.2
2009-03-10 08:52:04 51°18.123 3°1.086 49.3 11.5 43 8.1
2009-03-10 08:52:08 51°18.13 3°1.101 49.6 11.2 54 8.4
2009-03-10 08:52:13 51°18.14 3°1.121 51.8 11.4 47 8
2009-03-10 08:52:19 51°18.154 3°1.142 49 11.4 46 8.2
2009-03-10 08:52:24 51°18.163 3°1.162 49.9 11.3 52 8.1
2009-03-10 08:52:28 51°18.172 3°1.176 50.2 11.4 44 8.1
2009-03-10 08:52:32 51°18.181 3°1.19 47.3 11.2 48 8
2009-03-10 08:52:39 51°18.195 3°1.216 49.6 11.2 47 8
2009-03-10 08:52:44 51°18.206 3°1.234 47.9 11.2 47 8.1
2009-03-10 08:52:48 51°18.214 3°1.25 50.2 11.4 49 8
2009-03-10 08:52:52 51°18.224 3°1.263 48 11.2 45 8.1
2009-03-10 08:52:59 51°18.237 3°1.291 49.9 11.2 52 8
2009-03-10 08:53:04 51°18.249 3°1.307 49 11.3 43 8
2009-03-10 08:53:09 51°18.258 3°1.327 49.2 11.2 52 8
2009-03-10 08:53:14 51°18.268 3°1.345 50.7 11.2 47 8
2009-03-10 08:53:18 51°18.276 3°1.361 51.1 11.3 50 8.1
2009-03-10 08:53:24 51°18.289 3°1.383 49.9 11.2 48 8
2009-03-10 08:53:28 51°18.296 3°1.4 51.6 11.3 52 8
2009-03-10 08:53:34 51°18.309 3°1.42 50.1 11.3 46 7.9
2009-03-10 08:53:38 51°18.317 3°1.437 51.4 11.3 51 7.9
2009-03-10 08:53:44 51°18.33 3°1.458 50.9 11.4 47 7.9
2009-03-10 08:53:48 51°18.338 3°1.474 49.8 11.2 48 7.8
2009-03-10 08:53:54 51°18.35 3°1.496 50 11.3 51 5.6
2009-03-10 08:53:59 51°18.361 3°1.515 50.3 11.4 46 7.7
2009-03-10 08:54:04 51°18.37 3°1.534 50 11.1 54 7.7
2009-03-10 08:54:08 51°18.378 3°1.55 53.3 11.4 49 7.6
2009-03-10 08:54:12 51°18.388 3°1.564 48.6 11.3 44 7.6
2009-03-10 08:54:18 51°18.399 3°1.586 47.9 11 53 7.6
2009-03-10 08:54:24 51°18.412 3°1.609 52 11.3 47 7.6
2009-03-10 08:54:28 51°18.42 3°1.623 49.2 11.2 46 7.7
2009-03-10 08:54:32 51°18.428 3°1.639 51 11.3 54 7.7
2009-03-10 08:54:38 51°18.44 3°1.661 51.6 11.4 46 7.7
2009-03-10 08:54:44 51°18.453 3°1.684 48.9 11.2 51 7.7
2009-03-10 08:54:49 51°18.463 3°1.703 51.9 11.3 49 7.7
2009-03-10 08:54:53 51°18.472 3°1.716 48.4 11.2 45 7.7
2009-03-10 08:54:59 51°18.483 3°1.74 49.6 11.2 53 7.7
2009-03-10 08:55:04 51°18.494 3°1.757 50.7 11.3 44 7.7
2009-03-10 08:55:09 51°18.504 3°1.776 49.4 11.4 51 7.8
2009-03-10 08:55:14 51°18.515 3°1.794 49.5 11.2 47 7.8
2009-03-10 08:55:19 51°18.525 3°1.813 50 11.3 50 7.9
2009-03-10 08:55:24 51°18.536 3°1.832 50.3 11.3 47 7.9
2009-03-10 08:55:28 51°18.543 3°1.847 50.2 11.2 51 7.8
2009-03-10 08:55:34 51°18.556 3°1.869 51 11.3 48 7.8
2009-03-10 08:55:39 51°18.565 3°1.89 51.6 11.4 52 7.8
2009-03-10 08:55:44 51°18.576 3°1.907 50.8 11.2 47 7.8
2009-03-10 08:55:48 51°18.583 3°1.924 51.8 11.2 54 7.8
2009-03-10 08:55:53 51°18.594 3°1.942 52.3 11.3 45 7.8
2009-03-10 08:55:59 51°18.606 3°1.965 50.1 11.2 53 7.8
2009-03-10 08:56:04 51°18.616 3°1.984 52.4 11.2 47 7.9
2009-03-10 08:56:08 51°18.624 3°1.999 50.4 11.3 52 7.9
2009-03-10 08:56:13 51°18.634 3°2.018 51.7 11.4 47 7.9
2009-03-10 08:56:19 51°18.647 3°2.041 50.1 11.2 53 7.9
2009-03-10 08:56:24 51°18.657 3°2.06 51.7 11.3 50 7.9
2009-03-10 08:56:28 51°18.665 3°2.075 51.6 11.4 49 7.9
2009-03-10 08:56:33 51°18.674 3°2.095 52.1 11.3 54 7.9
2009-03-10 08:56:39 51°18.687 3°2.117 52.5 11.2 48 7.8
2009-03-10 08:56:44 51°18.696 3°2.137 51.8 11.1 50 8.1
2009-03-10 08:56:49 51°18.707 3°2.155 51 11.3 49 8
2009-03-10 08:56:53 51°18.715 3°2.17 50.3 11.3 46 7.9
2009-03-10 08:56:59 51°18.727 3°2.193 49.7 11.5 51 7.9
2009-03-10 08:57:04 51°18.738 3°2.212 50.9 11.5 46 8
2009-03-10 08:57:09 51°18.748 3°2.231 49.4 11.1 52 8
2009-03-10 08:57:13 51°18.756 3°2.246 52.1 11.2 46 8
2009-03-10 08:57:19 51°18.769 3°2.267 48.6 11.3 47 7.9
2009-03-10 08:57:24 51°18.779 3°2.286 49.6 11.2 49 8
2009-03-10 08:57:29 51°18.79 3°2.304 50.2 11.2 49 8.1
2009-03-10 08:57:34 51°18.8 3°2.322 50.2 11.2 46 8.1
2009-03-10 08:57:39 51°18.811 3°2.341 47.6 11 50 8
2009-03-10 08:57:44 51°18.821 3°2.36 51.3 11.2 48 8
2009-03-10 08:57:48 51°18.83 3°2.373 48.7 11.2 47 7.9
2009-03-10 08:57:53 51°18.839 3°2.393 50.3 11.1 49 8
2009-03-10 08:57:59 51°18.852 3°2.415 50.5 11.4 49 8
2009-03-10 08:58:04 51°18.863 3°2.433 50.3 11.4 46 8
2009-03-10 08:58:08 51°18.871 3°2.448 49.4 11.1 52 8
2009-03-10 08:58:13 51°18.881 3°2.468 51.6 11.4 47 7.9
2009-03-10 08:58:19 51°18.894 3°2.489 49.4 11.4 48 8.1
2009-03-10 08:58:24 51°18.904 3°2.509 50.1 11.3 50 8.1
2009-03-10 08:58:28 51°18.913 3°2.523 50.2 11.5 46 7.9
2009-03-10 08:58:33 51°18.923 3°2.543 49.7 11.5 49 8
2009-03-10 08:58:39 51°18.936 3°2.565 49.5 11.4 52 8
2009-03-10 08:58:44 51°18.946 3°2.585 51.8 11.5 48 8.1
2009-03-10 08:58:49 51°18.957 3°2.603 48.1 11.3 47 8
2009-03-10 08:58:53 51°18.965 3°2.619 50.5 11.4 49 8
2009-03-10 08:58:59 51°18.979 3°2.639 48 11.3 44 7.9
2009-03-10 08:59:04 51°18.987 3°2.659 49.6 11.2 54 8.1
2009-03-10 08:59:09 51°18.999 3°2.677 50.9 11.3 45 8.1
2009-03-10 08:59:13 51°19.006 3°2.694 50.9 11.4 53 7.9
2009-03-10 08:59:19 51°19.02 3°2.713 49.3 11.2 43 7.9
2009-03-10 08:59:24 51°19.028 3°2.735 51 11.1 55 8
2009-03-10 08:59:29 51°19.04 3°2.751 50.9 11.2 45 8
2009-03-10 08:59:34 51°19.05 3°2.771 50.8 11.3 50 8.1
2009-03-10 08:59:39 51°19.061 3°2.789 50.5 11.4 47 8
2009-03-10 08:59:44 51°19.071 3°2.808 49.4 11.4 50 8
2009-03-10 08:59:48 51°19.079 3°2.823 50.9 11.4 47 8
2009-03-10 08:59:53 51°19.089 3°2.843 51.3 11.5 53 8
2009-03-10 08:59:58 51°19.1 3°2.861 50.2 11.4 43 8
2009-03-10 09:00:04 51°19.113 3°2.883 48.5 11.3 51 8
2009-03-10 09:00:08 51°19.121 3°2.899 50.5 11.5 47 8
2009-03-10 09:00:14 51°19.134 3°2.921 48.2 11.2 49 8
2009-03-10 09:00:19 51°19.143 3°2.941 52.3 11.4 52 8
2009-03-10 09:00:24 51°19.155 3°2.957 49.5 11.3 41 7.9
2009-03-10 09:00:28 51°19.162 3°2.974 48.5 11.3 53 7.9
2009-03-10 09:00:33 51°19.174 3°2.991 49.1 11.3 44 8
2009-03-10 09:00:39 51°19.185 3°3.016 50.4 11.5 53 8
2009-03-10 09:00:44 51°19.197 3°3.032 49.4 11.4 41 8
2009-03-10 09:00:48 51°19.205 3°3.046 46.5 11.1 50 8.1
2009-03-10 09:00:53 51°19.216 3°3.066 50.1 11.4 47 8.1
2009-03-10 09:00:58 51°19.227 3°3.083 47.3 11.4 43 8.1
2009-03-10 09:01:04 51°19.239 3°3.106 48.1 11.3 51 8.1
2009-03-10 09:01:08 51°19.248 3°3.12 49.9 11.5 44 8.1
2009-03-10 09:01:12 51°19.257 3°3.134 47.3 11.2 48 8.2
2009-03-10 09:01:19 51°19.271 3°3.161 49.9 11.3 49 8.1
2009-03-10 09:01:24 51°19.282 3°3.178 49.6 11.3 43 8.1
2009-03-10 09:01:29 51°19.293 3°3.195 44.3 11.2 46 8
2009-03-10 09:01:33 51°19.301 3°3.212 49.4 11.5 48 7.9
2009-03-10 09:01:39 51°19.316 3°3.231 46.2 11.2 43 8
2009-03-10 09:01:44 51°19.326 3°3.25 47.5 11.3 47 8
2009-03-10 09:01:49 51°19.338 3°3.266 46.3 11.3 42 8.1
2009-03-10 09:01:54 51°19.348 3°3.285 45.3 11.2 46 7.9
2009-03-10 09:01:59 51°19.36 3°3.301 45.8 11.2 42 8
2009-03-10 09:02:04 51°19.371 3°3.321 47 11.5 48 8
2009-03-10 09:02:08 51°19.382 3°3.332 43.6 11.5 38 7.8
2009-03-10 09:02:14 51°19.394 3°3.355 45 11.5 48 7.9
2009-03-10 09:02:19 51°19.406 3°3.371 44.8 11.4 40 8
2009-03-10 09:02:24 51°19.417 3°3.39 45.5 11.6 46 8
2009-03-10 09:02:28 51°19.428 3°3.401 43 11.3 40 7.9
2009-03-10 09:02:33 51°19.437 3°3.422 46.8 11.4 46 8
2009-03-10 09:02:39 51°19.452 3°3.44 43.8 11.5 42 7.9
2009-03-10 09:02:44 51°19.463 3°3.458 44.4 11.3 44 8
2009-03-10 09:02:48 51°19.472 3°3.473 47 11.5 47 8.1
2009-03-10 09:02:53 51°19.484 3°3.49 45 11.4 41 8
2009-03-10 09:02:59 51°19.496 3°3.513 46.6 11.4 45 8.1
2009-03-10 09:03:04 51°19.509 3°3.528 45.4 11.3 41 8.1
2009-03-10 09:03:08 51°19.517 3°3.544 46.3 11.5 46 8.1
2009-03-10 09:03:13 51°19.529 3°3.561 45.2 11.7 41 8.1
2009-03-10 09:03:19 51°19.542 3°3.583 45 11.5 47 8.1
2009-03-10 09:03:24 51°19.554 3°3.6 46.6 11.3 43 8.1
2009-03-10 09:03:29 51°19.565 3°3.618 45.9 11.3 44 8.1
2009-03-10 09:03:33 51°19.575 3°3.632 45.1 11.5 44 8
2009-03-10 09:03:39 51°19.588 3°3.653 45.8 11.4 43 8.1
2009-03-10 09:03:44 51°19.598 3°3.673 46.5 11.6 50 8
2009-03-10 09:03:49 51°19.611 3°3.688 45.9 11.5 38 8
2009-03-10 09:03:53 51°19.62 3°3.701 41.3 11.1 47 8
2009-03-10 09:03:59 51°19.633 3°3.724 47.7 11.5 45 8
2009-03-10 09:04:04 51°19.646 3°3.741 45.6 11.5 40 7.9
2009-03-10 09:04:09 51°19.657 3°3.758 43.6 11.2 46 7.9
2009-03-10 09:04:14 51°19.668 3°3.776 47.2 11.4 42 7.9
2009-03-10 09:04:19 51°19.68 3°3.792 42.2 11.3 42 7.9
2009-03-10 09:04:24 51°19.691 3°3.81 44.4 11.4 45 7.9
2009-03-10 09:04:28 51°19.701 3°3.824 45.3 11.5 41 7.8
2009-03-10 09:04:34 51°19.715 3°3.842 41.5 11.1 41 7.9
2009-03-10 09:04:39 51°19.726 3°3.859 44.3 11.1 40 8.1
2009-03-10 09:04:44 51°19.739 3°3.873 39.8 11.4 36 7.8
2009-03-10 09:04:48 51°19.749 3°3.885 38.2 11.3 30 7.9
2009-03-10 09:04:53 51°19.764 3°3.895 30.8 11 31 7.8
2009-03-10 09:04:59 51°19.779 3°3.911 33.4 11.1 29 7.9
2009-03-10 09:05:04 51°19.793 3°3.923 31.6 11.3 28 8
2009-03-10 09:05:08 51°19.805 3°3.93 26.1 11.1 23 7.9
2009-03-10 09:05:13 51°19.818 3°3.941 27.1 11.2 29 7.6
2009-03-10 09:05:19 51°19.836 3°3.952 28.6 11.3 15 7.6
2009-03-10 09:05:24 51°19.85 3°3.961 21.2 11 22 7.6
2009-03-10 09:05:29 51°19.864 3°3.971 23.4 11.2 25 7.6
2009-03-10 09:05:33 51°19.876 3°3.977 23.3 11.2 17 7.5
2009-03-10 09:05:39 51°19.893 3°3.988 20.7 11.1 27 7.5
2009-03-10 09:05:44 51°19.907 3°3.998 24.6 11.3 22 7.6
2009-03-10 09:05:49 51°19.923 3°4.004 22.2 11.2 16 7.7
2009-03-10 09:05:53 51°19.933 3°4.013 22 11 24 7.7
2009-03-10 09:05:59 51°19.951 3°4.022 22.9 11.3 18 7.8
2009-03-10 09:06:04 51°19.966 3°4.031 21.2 11.2 20 7.8
2009-03-10 09:06:08 51°19.977 3°4.038 21.8 11.1 23 7.7
2009-03-10 09:06:13 51°19.992 3°4.045 21.3 11.2 15 7.7
2009-03-10 09:06:18 51°20.007 3°4.056 21.4 11.4 25 7.7
2009-03-10 09:06:24 51°20.025 3°4.065 23.3 11.3 18 7.7
2009-03-10 09:06:28 51°20.036 3°4.073 22.6 11.1 25 7.6
2009-03-10 09:06:33 51°20.05 3°4.082 24.5 11.5 18 7.7
2009-03-10 09:06:39 51°20.068 3°4.093 22.9 11.4 22 7.6
2009-03-10 09:06:44 51°20.082 3°4.103 23.3 11.3 24 7.7
2009-03-10 09:06:48 51°20.094 3°4.11 24.6 11.3 22 7.5
2009-03-10 09:06:53 51°20.109 3°4.119 23 11.3 20 7.5
2009-03-10 09:06:59 51°20.126 3°4.131 23.9 11.4 23 7.6
2009-03-10 09:07:04 51°20.141 3°4.14 24.2 11.4 20 7.7
2009-03-10 09:07:08 51°20.152 3°4.149 23.1 11.4 25 7.6
2009-03-10 09:07:13 51°20.167 3°4.156 23.1 11.3 17 7.5
2009-03-10 09:07:19 51°20.184 3°4.169 23.3 11.4 25 7.5
2009-03-10 09:07:24 51°20.2 3°4.176 22.7 11.3 18 7.4
2009-03-10 09:07:28 51°20.211 3°4.186 25.1 11.3 23 7.4
2009-03-10 09:07:33 51°20.226 3°4.191 21.4 11.3 17 7.4
2009-03-10 09:07:39 51°20.243 3°4.204 23.5 11.4 21 7.5
2009-03-10 09:07:44 51°20.258 3°4.212 22.5 11.4 19 7.5
2009-03-10 09:07:49 51°20.273 3°4.222 23.1 11.3 23 7.6
2009-03-10 09:07:53 51°20.284 3°4.229 23.6 11.3 22 7.7
2009-03-10 09:07:58 51°20.299 3°4.239 24.4 11.5 21 7.7
2009-03-10 09:08:04 51°20.317 3°4.249 22.9 11.5 21 7.7
2009-03-10 09:08:08 51°20.328 3°4.257 23.3 11.3 25 7.7
2009-03-10 09:08:13 51°20.343 3°4.266 24 11.3 20 7.6
2009-03-10 09:08:18 51°20.358 3°4.275 23.6 11.4 20 7.6
2009-03-10 09:08:24 51°20.375 3°4.287 23.1 11.3 22 7.7
2009-03-10 09:08:28 51°20.387 3°4.293 22.7 11.3 22 7.7
2009-03-10 09:08:33 51°20.401 3°4.303 24.5 11.4 21 7.7
2009-03-10 09:08:39 51°20.419 3°4.313 22.6 11.4 21 7.7
2009-03-10 09:08:44 51°20.434 3°4.324 25.2 11.4 24 7.8
2009-03-10 09:08:48 51°20.446 3°4.33 23.7 11.2 21 7.9
2009-03-10 09:08:54 51°20.462 3°4.345 26.6 11.2 29 8
2009-03-10 09:08:59 51°20.476 3°4.356 28.9 11.3 28 7.9
2009-03-10 09:09:04 51°20.489 3°4.37 31.8 11.3 32 7.9
2009-03-10 09:09:08 51°20.5 3°4.38 34.1 11.3 34 8
2009-03-10 09:09:14 51°20.515 3°4.398 36.2 11.2 34 8
2009-03-10 09:09:18 51°20.525 3°4.411 37.8 11.3 39 8.1
2009-03-10 09:09:24 51°20.539 3°4.429 39.2 11.2 37 8.1
2009-03-10 09:09:28 51°20.548 3°4.443 40.7 11.3 44 8.1
2009-03-10 09:09:32 51°20.557 3°4.457 44 11.3 41 8.2
2009-03-10 09:09:39 51°20.572 3°4.482 45.2 11.4 49 8.2
2009-03-10 09:09:44 51°20.583 3°4.5 47.1 11.3 44 8.2
2009-03-10 09:09:48 51°20.59 3°4.517 50.3 11.3 53 8.2
2009-03-10 09:09:52 51°20.599 3°4.53 48.4 11.1 44 8.2
2009-03-10 09:09:59 51°20.612 3°4.558 51.7 11.2 55 8.4
2009-03-10 09:10:04 51°20.623 3°4.576 50.9 11.3 47 8.3
2009-03-10 09:10:08 51°20.629 3°4.594 53.5 11.4 59 8.4
2009-03-10 09:10:12 51°20.637 3°4.61 55.2 11.3 52 8.4
2009-03-10 09:10:18 51°20.646 3°4.635 56.5 11.3 61 8.5
2009-03-10 09:10:24 51°20.656 3°4.661 59.3 11.4 58 8.4
2009-03-10 09:10:29 51°20.663 3°4.684 61.2 11.4 66 8.4
2009-03-10 09:10:34 51°20.67 3°4.706 65.3 11.2 66 8.4
2009-03-10 09:10:38 51°20.675 3°4.724 66.7 11.3 66 8.5
2009-03-10 09:10:44 51°20.683 3°4.752 66.7 11.4 65 8.5
2009-03-10 09:10:49 51°20.687 3°4.775 67.6 11.2 72 8.5
2009-03-10 09:10:54 51°20.693 3°4.799 70.3 11.3 67 8.5
2009-03-10 09:10:58 51°20.698 3°4.817 68.6 11.4 68 8.5
2009-03-10 09:11:04 51°20.704 3°4.846 69 11.4 72 8.6
2009-03-10 09:11:09 51°20.71 3°4.869 70.4 11.3 68 8.6
2009-03-10 09:11:14 51°20.715 3°4.892 69.5 11.2 72 8.5
2009-03-10 09:11:18 51°20.719 3°4.912 71.8 11.3 69 8.5
2009-03-10 09:11:24 51°20.727 3°4.939 69.7 11.4 68 8.6
2009-03-10 09:11:28 51°20.73 3°4.959 70.2 11.3 73 8.6
2009-03-10 09:11:34 51°20.737 3°4.986 70.8 11.2 69 8.6
2009-03-10 09:11:39 51°20.741 3°5.011 72.4 11.4 74 8.6
2009-03-10 09:11:44 51°20.747 3°5.034 72.1 11.5 68 8.6
2009-03-10 09:11:48 51°20.75 3°5.053 71.5 11.3 74 8.7
2009-03-10 09:11:53 51°20.755 3°5.077 72.3 11.4 71 8.6
2009-03-10 09:11:59 51°20.762 3°5.106 71.1 11.5 69 8.6
2009-03-10 09:12:04 51°20.767 3°5.13 70.9 11.5 71 8.5
2009-03-10 09:12:08 51°20.771 3°5.149 71.2 11.5 70 8.5
2009-03-10 09:12:13 51°20.777 3°5.173 70.4 11.5 69 8.6
2009-03-10 09:12:19 51°20.784 3°5.202 70.4 11.5 70 8.6
2009-03-10 09:12:24 51°20.789 3°5.226 70.5 11.5 71 8.6
2009-03-10 09:12:29 51°20.795 3°5.25 70 11.6 68 8.7
2009-03-10 09:12:33 51°20.799 3°5.269 70.5 11.8 69 8.5
2009-03-10 09:12:39 51°20.808 3°5.298 68.6 11.8 67 8.5
2009-03-10 09:12:44 51°20.812 3°5.322 70 11.4 72 8.5
2009-03-10 09:12:49 51°20.818 3°5.345 70.7 11.4 68 8.5
2009-03-10 09:12:53 51°20.823 3°5.364 69 11.5 68 8.6
2009-03-10 09:12:59 51°20.83 3°5.393 69.1 11.4 70 8.6
2009-03-10 09:13:04 51°20.835 3°5.417 69.9 11.5 68 8.7
2009-03-10 09:13:09 51°20.841 3°5.441 69.6 11.6 69 8.6
2009-03-10 09:13:14 51°20.848 3°5.464 68.4 11.5 66 8.6
2009-03-10 09:13:19 51°20.854 3°5.488 68 11.5 69 8.6
2009-03-10 09:13:24 51°20.861 3°5.51 67.5 11.5 63 8.7
2009-03-10 09:13:28 51°20.865 3°5.529 66.2 11.6 70 8.8
2009-03-10 09:13:34 51°20.874 3°5.557 66.1 11.4 63 8.7
2009-03-10 09:13:39 51°20.879 3°5.581 66.7 11.5 71 8.8
2009-03-10 09:13:44 51°20.887 3°5.603 67.5 11.5 60 8.7
2009-03-10 09:13:48 51°20.892 3°5.621 64.2 11.4 66 8.7
2009-03-10 09:13:54 51°20.899 3°5.649 66.6 11.2 68 8.7
2009-03-10 09:13:59 51°20.906 3°5.672 67.2 11.3 66 8.7
2009-03-10 09:14:04 51°20.912 3°5.694 66.9 11.2 64 8.8
2009-03-10 09:14:08 51°20.917 3°5.713 66.9 11.3 70 8.7
2009-03-10 09:14:13 51°20.924 3°5.736 67.7 11.5 62 8.7
2009-03-10 09:14:19 51°20.931 3°5.764 65.8 11.5 69 8.8
2009-03-10 09:14:24 51°20.938 3°5.786 66.6 11.3 64 8.8
2009-03-10 09:14:28 51°20.943 3°5.805 66.7 11.4 68 8.8
2009-03-10 09:14:33 51°20.949 3°5.829 67.6 11.6 66 8.8
2009-03-10 09:14:39 51°20.957 3°5.856 66.9 11.4 68 8.8
2009-03-10 09:14:44 51°20.963 3°5.88 68 11.3 68 8.9
2009-03-10 09:14:49 51°20.969 3°5.903 68.3 11.8 67 8.7
2009-03-10 09:14:53 51°20.975 3°5.922 66.2 11.6 62 8.8
2009-03-10 09:14:59 51°20.982 3°5.95 65.5 11.1 72 8.8
2009-03-10 09:15:04 51°20.988 3°5.973 69.3 11.4 66 8.8
2009-03-10 09:15:09 51°20.996 3°5.996 66.1 11.6 63 8.8
2009-03-10 09:15:13 51°21 3°6.014 65.5 11.2 68 8.9
2009-03-10 09:15:19 51°21.007 3°6.042 67.9 11.3 69 8.9
2009-03-10 09:15:24 51°21.014 3°6.065 68.2 11.6 64 8.9
2009-03-10 09:15:29 51°21.021 3°6.088 64.8 11.4 63 9
2009-03-10 09:15:34 51°21.026 3°6.112 66.9 11.4 70 9
2009-03-10 09:15:39 51°21.034 3°6.134 66.8 11.6 62 9
2009-03-10 09:15:44 51°21.04 3°6.158 65 11.4 67 9
2009-03-10 09:15:48 51°21.046 3°6.176 66.9 11.6 65 9
2009-03-10 09:15:54 51°21.055 3°6.204 65.4 11.7 62 9
2009-03-10 09:15:59 51°21.06 3°6.227 64.8 11.4 69 9
2009-03-10 09:16:04 51°21.067 3°6.25 68.2 11.4 65 9.1
2009-03-10 09:16:08 51°21.073 3°6.268 65.4 11.6 64 9.2
2009-03-10 09:16:14 51°21.081 3°6.296 65.1 11.5 66 9.1
2009-03-10 09:16:19 51°21.087 3°6.32 66.4 11.5 68 9.2
2009-03-10 09:16:24 51°21.093 3°6.344 67.6 11.6 67 9.1
2009-03-10 09:16:28 51°21.098 3°6.363 68.2 11.6 67 9.1
2009-03-10 09:16:33 51°21.105 3°6.386 67 11.4 68 9.1
2009-03-10 09:16:39 51°21.111 3°6.415 69.6 11.7 64 9.1
2009-03-10 09:16:44 51°21.12 3°6.437 65 11.6 60 9.1
2009-03-10 09:16:48 51°21.123 3°6.457 65.7 11.4 73 9.1
2009-03-10 09:16:53 51°21.13 3°6.48 69.4 11.4 63 9.2
2009-03-10 09:16:59 51°21.137 3°6.508 66.8 11.4 70 9.3
2009-03-10 09:17:04 51°21.144 3°6.531 68 11.5 65 9.3
2009-03-10 09:17:09 51°21.15 3°6.554 66.9 11.6 66 9.3
2009-03-10 09:17:13 51°21.155 3°6.573 67.2 11.6 67 9.3
2009-03-10 09:17:19 51°21.163 3°6.601 67.5 11.6 66 9.3
2009-03-10 09:17:24 51°21.169 3°6.624 67.1 11.3 69 9.3
2009-03-10 09:17:29 51°21.174 3°6.648 69.8 11.4 70 9.4
2009-03-10 09:17:33 51°21.18 3°6.667 69.1 11.7 65 9.3
2009-03-10 09:17:39 51°21.186 3°6.696 68 11.8 72 9.3
2009-03-10 09:17:44 51°21.191 3°6.721 71 11.8 71 9.3
2009-03-10 09:17:49 51°21.197 3°6.745 71 11.6 70 9.4
2009-03-10 09:17:54 51°21.202 3°6.77 72.8 11.8 72 9.3
2009-03-10 09:17:59 51°21.207 3°6.795 71.9 11.8 71 9.3
2009-03-10 09:18:04 51°21.212 3°6.819 71.9 11.7 71 9.3
2009-03-10 09:18:08 51°21.216 3°6.84 72.9 11.8 74 9.3
2009-03-10 09:18:14 51°21.222 3°6.869 73.3 11.7 72 9.3
2009-03-10 09:18:19 51°21.227 3°6.894 72.9 11.6 73 9.3
2009-03-10 09:18:24 51°21.231 3°6.919 73.9 11.8 73 9.3
2009-03-10 09:18:28 51°21.237 3°6.938 71.9 11.9 68 9.3
2009-03-10 09:18:34 51°21.242 3°6.968 71.7 11.7 74 9.4
2009-03-10 09:18:39 51°21.248 3°6.992 71.9 11.5 70 9.4
2009-03-10 09:18:44 51°21.253 3°7.017 71.3 11.7 70 9.5
2009-03-10 09:18:48 51°21.258 3°7.036 70.4 12 71 9.4
2009-03-10 09:18:53 51°21.264 3°7.061 70.6 11.9 69 9.5
2009-03-10 09:18:59 51°21.27 3°7.091 70.5 11.9 72 9.5
2009-03-10 09:19:04 51°21.276 3°7.115 70.7 11.8 66 9.5
2009-03-10 09:19:09 51°21.282 3°7.14 69.2 11.6 71 9.5
2009-03-10 09:19:13 51°21.286 3°7.159 70.4 11.8 71 9.4
2009-03-10 09:19:19 51°21.293 3°7.188 71 11.8 66 9.4
2009-03-10 09:19:24 51°21.299 3°7.212 69 11.5 71 9.5
2009-03-10 09:19:29 51°21.304 3°7.237 71.6 11.6 70 9.5
2009-03-10 09:19:33 51°21.309 3°7.256 69.8 11.6 68 9.6
2009-03-10 09:19:39 51°21.315 3°7.286 69.9 11.9 73 9.5
2009-03-10 09:19:44 51°21.322 3°7.309 70.4 11.8 67 9.7
2009-03-10 09:19:49 51°21.326 3°7.335 70.2 11.8 75 9.7
2009-03-10 09:19:54 51°21.333 3°7.359 71.8 11.9 68 9.7
2009-03-10 09:19:59 51°21.338 3°7.384 70.6 11.9 72 9.7
2009-03-10 09:20:04 51°21.342 3°7.409 72 11.9 73 9.7
2009-03-10 09:20:09 51°21.349 3°7.433 71.1 11.6 69 9.7
2009-03-10 09:20:14 51°21.353 3°7.458 72.7 11.8 74 9.7
2009-03-10 09:20:19 51°21.36 3°7.482 70.7 11.9 66 9.7
2009-03-10 09:20:24 51°21.364 3°7.508 70.4 11.9 74 9.9
2009-03-10 09:20:29 51°21.37 3°7.532 71.9 11.6 71 9.9
2009-03-10 09:20:34 51°21.373 3°7.558 74 11.9 76 9.9
2009-03-10 09:20:39 51°21.38 3°7.581 72.1 11.6 65 9.7
2009-03-10 09:20:44 51°21.383 3°7.606 72.2 11.5 78 9.7
2009-03-10 09:20:48 51°21.388 3°7.625 73.2 11.7 68 9.9
2009-03-10 09:20:53 51°21.393 3°7.65 71.4 11.7 74 10.2
2009-03-10 09:20:59 51°21.399 3°7.679 73.1 11.6 72 10
2009-03-10 09:21:04 51°21.404 3°7.704 72.3 11.8 73 9.9
2009-03-10 09:21:08 51°21.408 3°7.724 72.7 11.9 70 9.8
2009-03-10 09:21:13 51°21.413 3°7.748 71.3 11.7 73 9.9
2009-03-10 09:21:19 51°21.419 3°7.778 72.5 11.6 71 9.8
2009-03-10 09:21:24 51°21.425 3°7.803 71.6 11.9 69 9.8
2009-03-10 09:21:29 51°21.43 3°7.828 71.2 12 71 9.7
2009-03-10 09:21:33 51°21.435 3°7.847 70.1 11.6 70 9.7
2009-03-10 09:21:39 51°21.441 3°7.877 71.4 11.8 71 9.8
2009-03-10 09:21:44 51°21.447 3°7.901 70.4 11.9 71 9.8
2009-03-10 09:21:49 51°21.452 3°7.927 71.5 11.9 73 9.8
2009-03-10 09:21:53 51°21.456 3°7.947 72.3 12 71 9.7
2009-03-10 09:21:59 51°21.463 3°7.977 71 12 69 9.9
2009-03-10 09:22:04 51°21.467 3°8.002 71.9 12 74 10
2009-03-10 09:22:09 51°21.474 3°8.026 71 11.9 67 10
2009-03-10 09:22:14 51°21.479 3°8.052 71 12.1 73 10
2009-03-10 09:22:19 51°21.486 3°8.076 69.7 11.9 67 10
2009-03-10 09:22:24 51°21.489 3°8.103 72.6 12.2 75 10.1
2009-03-10 09:22:29 51°21.498 3°8.126 68.8 12 63 10
2009-03-10 09:22:34 51°21.501 3°8.152 69.7 11.8 76 10.1
2009-03-10 09:22:39 51°21.508 3°8.175 70.6 11.7 67 10.1
2009-03-10 09:22:44 51°21.513 3°8.201 70.8 12 71 10.1
2009-03-10 09:22:48 51°21.519 3°8.22 69.6 12 68 10.1
2009-03-10 09:22:54 51°21.524 3°8.251 71 11.9 72 10.1
2009-03-10 09:22:59 51°21.531 3°8.275 70.6 11.9 70 10.2
2009-03-10 09:23:04 51°21.536 3°8.301 71.3 12.1 72 10.2
2009-03-10 09:23:08 51°21.541 3°8.32 70.5 12 68 10.2
2009-03-10 09:23:14 51°21.547 3°8.351 70.3 12 74 10.2
2009-03-10 09:23:19 51°21.553 3°8.375 72.1 12 65 10.2
2009-03-10 09:23:24 51°21.558 3°8.4 69.7 11.9 73 10.2
2009-03-10 09:23:28 51°21.562 3°8.42 71.7 12 68 10.2
2009-03-10 09:23:33 51°21.569 3°8.444 69.1 11.8 71 10.2
2009-03-10 09:23:39 51°21.575 3°8.474 71.9 11.8 68 10.3
2009-03-10 09:23:44 51°21.581 3°8.498 70.4 11.9 68 10.3
2009-03-10 09:23:49 51°21.587 3°8.523 69.9 11.9 69 10.3
2009-03-10 09:23:53 51°21.593 3°8.542 67.4 11.7 68 10.3
2009-03-10 09:23:59 51°21.599 3°8.572 69.2 12 68 10.4
2009-03-10 09:24:04 51°21.607 3°8.595 65.8 11.9 62 10.4
2009-03-10 09:24:09 51°21.613 3°8.62 64.9 11.7 72 10.4
2009-03-10 09:24:13 51°21.618 3°8.639 69.8 12 64 10.4
2009-03-10 09:24:19 51°21.627 3°8.667 64 11.8 63 10.4
2009-03-10 09:24:24 51°21.633 3°8.691 67.2 11.9 65 10.5
2009-03-10 09:24:29 51°21.642 3°8.714 64 11.8 59 10.6
2009-03-10 09:24:34 51°21.648 3°8.738 64.2 11.9 68 10.6
2009-03-10 09:24:39 51°21.656 3°8.761 65.3 11.8 61 10.7
2009-03-10 09:24:44 51°21.663 3°8.784 63.8 11.8 66 10.7
2009-03-10 09:24:49 51°21.67 3°8.809 65.5 12.2 63 10.9
2009-03-10 09:24:54 51°21.678 3°8.832 63.4 12.1 62 10.8
2009-03-10 09:24:59 51°21.684 3°8.857 65.4 12 68 11
2009-03-10 09:25:04 51°21.693 3°8.88 65.4 12.2 60 10.9
2009-03-10 09:25:08 51°21.699 3°8.899 62.7 12 65 11.1
2009-03-10 09:25:14 51°21.707 3°8.928 65.5 12 65 11.1
2009-03-10 09:25:19 51°21.715 3°8.952 63.6 12.1 60 11.2
2009-03-10 09:25:24 51°21.722 3°8.976 63.3 12 66 11.2
2009-03-10 09:25:28 51°21.728 3°8.995 64.6 12 63 11.3
2009-03-10 09:25:34 51°21.737 3°9.023 63.5 11.9 64 11.3
2009-03-10 09:25:39 51°21.744 3°9.048 66 12 62 11.4
2009-03-10 09:25:44 51°21.753 3°9.069 62.3 11.9 58 11.4
2009-03-10 09:25:49 51°21.758 3°9.095 65.4 12.2 71 11.6
2009-03-10 09:25:53 51°21.766 3°9.113 64.8 12.2 56 11.5
2009-03-10 09:25:59 51°21.774 3°9.142 61.2 12 68 11.7
2009-03-10 09:26:04 51°21.782 3°9.165 65.8 12.1 60 11.8
2009-03-10 09:26:08 51°21.789 3°9.184 61.8 12.1 64 11.9
2009-03-10 09:26:13 51°21.796 3°9.209 64.5 12.2 63 11.8
2009-03-10 09:26:19 51°21.805 3°9.238 64 12.4 63 11.9
2009-03-10 09:26:24 51°21.814 3°9.261 62.6 12.1 62 12.1
2009-03-10 09:26:29 51°21.82 3°9.286 65.1 12.2 66 12.2
2009-03-10 09:26:34 51°21.829 3°9.309 63.8 12.3 61 12.2
2009-03-10 09:26:39 51°21.836 3°9.334 63.7 12.2 62 12.3
2009-03-10 09:26:44 51°21.844 3°9.357 63.1 12 66 12.3
2009-03-10 09:26:49 51°21.851 3°9.382 66.4 12.1 62 12.4
2009-03-10 09:26:54 51°21.859 3°9.405 62.5 12 62 12.4
2009-03-10 09:26:58 51°21.864 3°9.426 65.4 12.3 66 12.5
2009-03-10 09:27:04 51°21.875 3°9.453 62.7 12.1 65 12.5
2009-03-10 09:27:09 51°21.88 3°9.479 66.5 12.2 68 12.6
2009-03-10 09:27:14 51°21.89 3°9.502 64.7 12.4 60 12.7
2009-03-10 09:27:19 51°21.896 3°9.527 63.8 12.3 65 12.7
2009-03-10 09:27:24 51°21.904 3°9.551 64.9 12.2 64 12.8
2009-03-10 09:27:28 51°21.909 3°9.571 65.5 12.4 64 12.9
2009-03-10 09:27:33 51°21.919 3°9.594 63.3 12.3 60 13
2009-03-10 09:27:39 51°21.926 3°9.625 65.3 12.5 67 13.1
2009-03-10 09:27:44 51°21.936 3°9.646 62.5 12.2 53 13.2
2009-03-10 09:27:48 51°21.942 3°9.666 58.9 12.2 65 13.3
2009-03-10 09:27:53 51°21.951 3°9.689 62.9 12.2 56 13.2
2009-03-10 09:27:59 51°21.961 3°9.716 58.6 12 61 13.3
2009-03-10 09:28:04 51°21.97 3°9.74 59.7 12.2 60 13.3